TAP339 GCFV-LPMA

Flight info

Callsign TAP339
Flight time 0h 41m
Altitude 38000
Route TADEK DCT SARAY DCT BIMBO DCT EKNOT
Aircraft A20N/M-SDE2E3FGHIRWXY/LB1

Departure

Time 2026-05-06 20:28
Airport Fuerteventura Airport (GCFV)

Arrival

Time 2026-05-06 21:09
Airport Cristiano Ronaldo International Airport (LPMA)
Time Latitude Longitude Altitude Speed Heading
2026-05-06 20:22 28.45314 -13.86824 72 ft 0 kts 270°
2026-05-06 20:23 28.45314 -13.86812 70 ft 2 kts 270°
2026-05-06 20:23 28.45314 -13.86785 72 ft 4 kts 270°
2026-05-06 20:23 28.45326 -13.86754 83 ft 5 kts 227°
2026-05-06 20:23 28.45337 -13.86741 85 ft 0 kts 173°
2026-05-06 20:24 28.45336 -13.86741 85 ft 1 kts 172°
2026-05-06 20:24 28.45301 -13.86735 73 ft 16 kts 170°
2026-05-06 20:24 28.45148 -13.86740 74 ft 34 kts 180°
2026-05-06 20:24 28.44829 -13.86727 58 ft 57 kts 195°
2026-05-06 20:25 28.44424 -13.86762 54 ft 59 kts 182°
2026-05-06 20:25 28.44078 -13.86763 47 ft 27 kts 149°
2026-05-06 20:25 28.44033 -13.86620 45 ft 16 kts 147°
2026-05-06 20:25 28.43902 -13.86612 42 ft 21 kts 181°
2026-05-06 20:26 28.43749 -13.86615 38 ft 23 kts 181°
2026-05-06 20:26 28.43579 -13.86619 34 ft 25 kts 181°
2026-05-06 20:26 28.43518 -13.86547 31 ft 7 kts 40°
2026-05-06 20:26 28.43604 -13.86494 34 ft 20 kts 28°
2026-05-06 20:27 28.43721 -13.86430 37 ft 15 kts 14°
2026-05-06 20:27 28.43748 -13.86427 37 ft 3 kts
2026-05-06 20:27 28.43994 -13.86417 40 ft 70 kts
2026-05-06 20:27 28.44730 -13.86391 65 ft 140 kts
2026-05-06 20:28 28.45769 -13.86358 728 ft 139 kts
2026-05-06 20:28 28.46675 -13.86343 1964 ft 122 kts
2026-05-06 20:28 28.47659 -13.86401 2486 ft 160 kts 356°
2026-05-06 20:28 28.48855 -13.86643 2854 ft 193 kts 351°
2026-05-06 20:29 28.50284 -13.87025 3219 ft 225 kts 348°
2026-05-06 20:29 28.51873 -13.87477 3819 ft 240 kts 348°
2026-05-06 20:29 28.53506 -13.87933 4620 ft 247 kts 348°
2026-05-06 20:29 28.55203 -13.88385 5416 ft 254 kts 348°
2026-05-06 20:30 28.56947 -13.88828 6305 ft 259 kts 348°
2026-05-06 20:30 28.60530 -13.89689 8037 ft 268 kts 347°
2026-05-06 20:30 28.62347 -13.90118 8912 ft 272 kts 347°
2026-05-06 20:31 28.64210 -13.90557 9828 ft 276 kts 346°
2026-05-06 20:31 28.66118 -13.91006 10604 ft 281 kts 346°
2026-05-06 20:31 28.68034 -13.91459 11379 ft 286 kts 345°
2026-05-06 20:31 28.69992 -13.91923 12148 ft 290 kts 345°
2026-05-06 20:32 28.71993 -13.92399 12930 ft 294 kts 345°
2026-05-06 20:32 29.55569 -14.17370 36959 ft 32000 kts 339°
2026-05-06 20:32 29.59325 -14.12154 37570 ft 274 kts 341°
2026-05-06 20:32 29.61168 -14.12753 37488 ft 273 kts 339°
2026-05-06 20:33 29.62993 -14.13328 37166 ft 284 kts 343°
2026-05-06 20:33 29.65059 -14.13812 36122 ft 317 kts 345°
2026-05-06 20:33 29.67311 -14.14327 35630 ft 337 kts 346°
2026-05-06 20:33 29.69644 -14.14803 35450 ft 347 kts 348°
2026-05-06 20:34 29.72033 -14.15327 35496 ft 349 kts 343°
2026-05-06 20:34 29.76554 -14.17337 35641 ft 352 kts 329°
2026-05-06 20:35 29.80491 -14.20752 35770 ft 358 kts 318°
2026-05-06 20:35 29.84154 -14.24725 35897 ft 364 kts 316°
2026-05-06 20:35 29.85917 -14.26708 35957 ft 0 kts 316°
2026-05-06 20:36 29.86595 -14.27457 38995 ft 333 kts 314°
2026-05-06 20:36 29.88298 -14.29331 38748 ft 347 kts 315°
2026-05-06 20:36 29.89696 -14.30859 40921 ft 363 kts 315°
2026-05-06 20:36 29.91591 -14.32889 40216 ft 384 kts 317°
2026-05-06 20:37 29.93651 -14.34963 39386 ft 409 kts 316°
2026-05-06 20:37 29.95774 -14.37285 38689 ft 427 kts 315°
2026-05-06 20:37 29.97889 -14.39725 38140 ft 429 kts 314°
2026-05-06 20:38 30.55664 -15.06311 38189 ft 429 kts 316°
2026-05-06 20:38 30.60276 -15.10782 38071 ft 434 kts 322°
2026-05-06 20:39 30.94875 -15.45104 38154 ft 427 kts 320°
2026-05-06 20:39 30.96895 -15.47573 38284 ft 422 kts 307°
2026-05-06 20:39 30.98506 -15.50416 38089 ft 418 kts 304°
2026-05-06 20:40 31.11869 -15.69458 38167 ft 412 kts 310°
2026-05-06 20:40 31.13766 -15.71761 38632 ft 405 kts 318°
2026-05-06 20:40 31.15882 -15.73963 38479 ft 408 kts 320°
2026-05-06 20:40 31.18052 -15.76122 38110 ft 409 kts 320°
2026-05-06 20:41 31.20216 -15.78315 38087 ft 409 kts 319°
2026-05-06 20:41 31.24465 -15.82635 38091 ft 404 kts 324°
2026-05-06 20:42 31.29328 -15.85849 38095 ft 402 kts 335°
2026-05-06 20:42 31.34466 -15.88422 38094 ft 402 kts 336°
2026-05-06 20:43 31.39614 -15.90946 38014 ft 397 kts 336°
2026-05-06 20:43 31.42150 -15.92189 37586 ft 393 kts 336°
2026-05-06 20:43 31.44685 -15.93434 36914 ft 396 kts 336°
2026-05-06 20:43 31.47243 -15.94691 36289 ft 400 kts 336°
2026-05-06 20:44 31.49819 -15.95957 35764 ft 401 kts 336°
2026-05-06 20:44 31.52406 -15.97229 35278 ft 404 kts 336°
2026-05-06 20:44 31.54998 -15.98504 34794 ft 405 kts 336°
2026-05-06 20:44 31.57588 -15.99779 34326 ft 403 kts 336°
2026-05-06 20:45 31.60164 -16.01048 33820 ft 399 kts 336°
2026-05-06 20:45 31.62717 -16.02306 33168 ft 398 kts 336°
2026-05-06 20:45 31.65259 -16.03560 32230 ft 404 kts 337°
2026-05-06 20:45 31.67875 -16.04851 31449 ft 407 kts 337°
2026-05-06 20:46 31.70489 -16.06142 30802 ft 406 kts 337°
2026-05-06 20:46 31.73085 -16.07424 30207 ft 404 kts 337°
2026-05-06 20:46 31.75664 -16.08699 29558 ft 401 kts 337°
2026-05-06 20:46 31.78225 -16.09966 28937 ft 398 kts 337°
2026-05-06 20:47 31.80761 -16.11221 28321 ft 394 kts 337°
2026-05-06 20:47 31.83287 -16.12472 27727 ft 391 kts 337°
2026-05-06 20:47 31.85781 -16.13708 27132 ft 389 kts 337°
2026-05-06 20:47 31.88268 -16.14941 26533 ft 386 kts 337°
2026-05-06 20:48 31.90760 -16.16177 25556 ft 393 kts 337°
2026-05-06 20:48 31.93314 -16.17445 24482 ft 402 kts 337°
2026-05-06 20:48 31.95935 -16.18747 23751 ft 420 kts 337°
2026-05-06 20:48 31.98672 -16.20107 23099 ft 428 kts 337°
2026-05-06 20:49 32.01396 -16.21461 22559 ft 424 kts 337°
2026-05-06 20:49 32.04108 -16.22811 22024 ft 421 kts 337°
2026-05-06 20:49 32.06801 -16.24152 21481 ft 419 kts 337°
2026-05-06 20:49 32.09477 -16.25486 20944 ft 417 kts 337°
2026-05-06 20:50 32.12124 -16.26806 20411 ft 415 kts 337°
2026-05-06 20:50 32.14778 -16.28130 19872 ft 413 kts 337°
2026-05-06 20:50 32.17470 -16.29418 19230 ft 418 kts 340°
2026-05-06 20:50 32.20209 -16.30448 18172 ft 416 kts 343°
2026-05-06 20:51 32.22998 -16.31385 17005 ft 413 kts 343°
2026-05-06 20:51 32.25729 -16.32285 16149 ft 403 kts 343°
2026-05-06 20:51 32.28423 -16.33174 15459 ft 397 kts 343°
2026-05-06 20:51 32.31029 -16.34040 14755 ft 392 kts 343°
2026-05-06 20:52 32.33638 -16.34909 13925 ft 385 kts 343°
2026-05-06 20:52 32.36207 -16.35767 12699 ft 380 kts 343°
2026-05-06 20:52 32.38738 -16.36614 11529 ft 375 kts 343°
2026-05-06 20:52 32.40404 -16.37172 10802 ft 370 kts 343°
2026-05-06 20:53 32.43664 -16.38264 9295 ft 362 kts 343°
2026-05-06 20:53 32.45267 -16.38802 8514 ft 358 kts 343°
2026-05-06 20:53 32.47645 -16.39599 7380 ft 352 kts 343°
2026-05-06 20:53 32.49989 -16.40387 6286 ft 347 kts 343°
2026-05-06 20:54 32.52283 -16.41159 5450 ft 344 kts 344°
2026-05-06 20:54 32.54575 -16.41931 4762 ft 338 kts 344°
2026-05-06 20:54 32.56822 -16.42687 4028 ft 332 kts 345°
2026-05-06 20:54 32.59033 -16.43431 3367 ft 329 kts 345°
2026-05-06 20:55 32.61233 -16.44172 3057 ft 327 kts 345°
2026-05-06 20:55 32.63388 -16.44896 2989 ft 316 kts 345°
2026-05-06 20:55 32.65420 -16.45582 2986 ft 290 kts 345°
2026-05-06 20:55 32.67295 -16.46216 2981 ft 268 kts 345°
2026-05-06 20:56 32.69005 -16.46794 2992 ft 249 kts 345°
2026-05-06 20:56 32.70655 -16.47350 2995 ft 243 kts 345°
2026-05-06 20:56 32.72269 -16.47894 2998 ft 244 kts 345°
2026-05-06 20:56 32.73916 -16.48449 2998 ft 245 kts 345°
2026-05-06 20:57 32.75561 -16.49004 3001 ft 245 kts 345°
2026-05-06 20:57 32.77213 -16.49567 2997 ft 246 kts 344°
2026-05-06 20:57 32.78759 -16.50371 2994 ft 246 kts 329°
2026-05-06 20:57 32.80060 -16.51715 3006 ft 248 kts 316°
2026-05-06 20:58 32.81210 -16.53251 2999 ft 249 kts 313°
2026-05-06 20:58 32.82279 -16.54882 3001 ft 251 kts 304°
2026-05-06 20:58 32.82934 -16.56809 2945 ft 255 kts 283°
2026-05-06 20:58 32.82900 -16.58935 2994 ft 261 kts 259°
2026-05-06 20:59 32.82111 -16.60899 2989 ft 268 kts 234°
2026-05-06 20:59 32.80699 -16.62349 2881 ft 271 kts 214°
2026-05-06 20:59 32.79102 -16.63446 2751 ft 262 kts 210°
2026-05-06 20:59 32.77521 -16.64455 2599 ft 252 kts 209°
2026-05-06 21:00 32.75988 -16.65436 2475 ft 250 kts 210°
2026-05-06 21:00 32.74452 -16.66432 2340 ft 250 kts 210°
2026-05-06 21:00 32.72953 -16.67412 2213 ft 249 kts 210°
2026-05-06 21:00 32.71438 -16.68410 2087 ft 248 kts 210°
2026-05-06 21:01 32.69922 -16.69410 1997 ft 247 kts 210°
2026-05-06 21:01 32.68443 -16.70386 2003 ft 237 kts 210°
2026-05-06 21:01 32.67074 -16.71288 1995 ft 218 kts 211°
2026-05-06 21:01 32.65767 -16.72152 2007 ft 211 kts 211°
2026-05-06 21:02 32.64495 -16.72995 2002 ft 211 kts 211°
2026-05-06 21:02 32.63211 -16.73845 1992 ft 212 kts 212°
2026-05-06 21:02 32.61925 -16.74697 2001 ft 212 kts 212°
2026-05-06 21:02 32.60636 -16.75549 1994 ft 211 kts 211°
2026-05-06 21:03 32.59360 -16.76393 2000 ft 211 kts 211°
2026-05-06 21:03 32.58106 -16.77221 1973 ft 197 kts 210°
2026-05-06 21:03 32.56977 -16.77963 2008 ft 176 kts 211°
2026-05-06 21:03 32.55962 -16.78740 2003 ft 173 kts 223°
2026-05-06 21:04 32.55245 -16.79835 2003 ft 169 kts 248°
2026-05-06 21:04 32.55014 -16.81178 2012 ft 164 kts 276°
2026-05-06 21:04 32.55294 -16.82436 2002 ft 158 kts 301°
2026-05-06 21:04 32.55999 -16.83422 2004 ft 156 kts 325°
2026-05-06 21:05 32.56972 -16.83957 2006 ft 155 kts 347°
2026-05-06 21:05 32.58040 -16.83965 2002 ft 155 kts 11°
2026-05-06 21:05 32.59015 -16.83450 1993 ft 157 kts 34°
2026-05-06 21:05 32.59896 -16.82724 1897 ft 151 kts 25°
2026-05-06 21:06 32.60833 -16.82171 1533 ft 149 kts 23°
2026-05-06 21:06 32.61789 -16.81693 1137 ft 147 kts 19°
2026-05-06 21:06 32.62682 -16.81343 1073 ft 122 kts 14°
2026-05-06 21:06 32.63533 -16.81056 1041 ft 149 kts 16°
2026-05-06 21:07 32.64524 -16.80702 1152 ft 135 kts 17°
2026-05-06 21:07 32.65391 -16.80397 1082 ft 126 kts 15°
2026-05-06 21:07 32.66236 -16.80159 947 ft 125 kts 12°
2026-05-06 21:07 32.67101 -16.79897 759 ft 130 kts 15°
2026-05-06 21:08 32.67950 -16.79472 496 ft 140 kts 28°
2026-05-06 21:08 32.68693 -16.78714 319 ft 140 kts 41°
2026-05-06 21:08 32.69365 -16.77931 190 ft 125 kts 39°
2026-05-06 21:08 32.69878 -16.77342 181 ft 63 kts 47°
2026-05-06 21:09 32.69949 -16.77197 182 ft 0 kts 145°
2026-05-06 21:09 32.69949 -16.77196 182 ft 1 kts 145°
2026-05-06 21:09 32.69853 -16.77181 179 ft 25 kts 199°
2026-05-06 21:10 32.69716 -16.77332 170 ft 29 kts 227°
2026-05-06 21:10 32.69586 -16.77490 177 ft 25 kts 227°
2026-05-06 21:10 32.69484 -16.77616 175 ft 14 kts 225°
2026-05-06 21:10 32.69414 -16.77701 172 ft 16 kts 226°
2026-05-06 21:11 32.69364 -16.77721 170 ft 7 kts 152°
2026-05-06 21:11 32.69337 -16.77695 175 ft 0 kts 137°